H1 CPF 2 NER 2020 11 24 9 329 01 glonass141 H2 1908801 9141 44850 2020 11 24 0 0 0 2020 11 27 23 45 0 900 1 1 0 0 0 1 H9 10 0 59177 0.00000 0 11634689.867 12637568.840 -18843146.643 10 0 59177 900.00000 0 12246631.801 14756895.088 -16807644.865 10 0 59177 1800.00000 0 12931122.802 16567227.930 -14445366.332 10 0 59177 2700.00000 0 13635019.868 18035135.359 -11802294.985 10 0 59177 3600.00000 0 14301319.370 19139634.920 -8929856.995 10 0 59177 4500.00000 0 14871700.708 19872848.208 -5883915.169 10 0 59177 5400.00000 0 15289139.218 20240116.706 -2723677.990 10 0 59177 6300.00000 0 15500477.471 20259575.552 489455.080 10 0 59177 7200.00000 0 15458846.036 19961204.772 3693089.014 10 0 59177 8100.00000 0 15125831.216 19385399.468 6825045.741 10 0 59177 9000.00000 0 14473298.145 18581120.512 9824569.961 10 0 59177 9900.00000 0 13484792.269 17603704.694 12633504.643 10 0 59177 10800.00000 0 12156460.121 16512427.274 15197413.592 10 0 59177 11700.00000 0 10497450.482 15367919.895 17466629.697 10 0 59177 12600.00000 0 8529778.818 14229552.426 19397209.142 10 0 59177 13500.00000 0 6287660.175 13152888.385 20951773.955 10 0 59177 14400.00000 0 3816337.603 12187320.127 22100227.568 10 0 59177 15300.00000 0 1170454.059 11373982.156 22820330.477 10 0 59177 16200.00000 0 -1587965.733 10744029.129 23098125.792 10 0 59177 17100.00000 0 -4391841.051 10317349.831 22928207.118 10 0 59177 18000.00000 0 -7171573.514 10101770.325 22313823.979 10 0 59177 18900.00000 0 -9857694.329 10092779.234 21266822.782 10 0 59177 19800.00000 0 -12383512.223 10273786.519 19807424.121 10 0 59177 20700.00000 0 -14687653.483 10616905.142 17963840.059 10 0 59177 21600.00000 0 -16716389.826 11084223.218 15771737.862 10 0 59177 22500.00000 0 -18425658.169 11629513.860 13273559.394 10 0 59177 23400.00000 0 -19782688.677 12200311.446 10517708.295 10 0 59177 24300.00000 0 -20767173.449 12740267.456 7557619.562 10 0 59177 25200.00000 0 -21371926.997 13191686.912 4450728.741 10 0 59177 26100.00000 0 -21603010.673 13498138.392 1257360.211 10 0 59177 27000.00000 0 -21479315.623 13607027.058 -1960444.097 10 0 59177 27900.00000 0 -21031621.595 13472021.165 -5140132.683 10 0 59177 28800.00000 0 -20301171.112 13055228.379 -8219865.161 10 0 59177 29700.00000 0 -19337819.156 12329028.517 -11139721.254 10 0 59177 30600.00000 0 -18197836.616 11277483.595 -13842873.827 10 0 59177 31500.00000 0 -16941460.575 9897264.003 -16276702.159 10 0 59177 32400.00000 0 -15630295.260 8198049.996 -18393823.110 10 0 59177 33300.00000 0 -14324673.842 6202389.951 -20153019.459 10 0 59177 34200.00000 0 -13081092.853 3945019.934 -21520046.833 10 0 59177 35100.00000 0 -11949827.720 1471671.830 -22468303.344 10 0 59177 36000.00000 0 -10972830.110 -1162581.076 -22979348.799 10 0 59177 36900.00000 0 -10181995.638 -3895372.648 -23043263.442 10 0 59177 37800.00000 0 -9597874.640 -6659401.618 -22658839.464 10 0 59177 38700.00000 0 -9228879.818 -9385000.648 -21833601.725 10 0 59177 39600.00000 0 -9071023.508 -12002809.879 -20583657.569 10 0 59177 40500.00000 0 -9108194.789 -14446443.925 -18933378.844 10 0 59177 41400.00000 0 -9312963.880 -16655041.544 -16914922.526 10 0 59177 42300.00000 0 -9647878.916 -18575592.026 -14567599.506 10 0 59177 43200.00000 0 -10067199.451 -20164941.903 -11937104.043 10 0 59177 44100.00000 0 -10518992.505 -21391398.908 -9074619.126 10 0 59177 45000.00000 0 -10947501.767 -22235867.074 -6035815.586 10 0 59177 45900.00000 0 -11295689.008 -22692466.650 -2879764.784 10 0 59177 46800.00000 0 -11507839.589 -22768614.178 332213.496 10 0 59177 47700.00000 0 -11532121.380 -22484560.787 3537745.020 10 0 59177 48600.00000 0 -11322988.529 -21872409.570 6674613.336 10 0 59177 49500.00000 0 -10843328.243 -20974654.660 9681966.456 10 0 59177 50400.00000 0 -10066259.806 -19842304.600 12501494.334 10 0 59177 51300.00000 0 -8976509.860 -18532669.731 15078554.481 10 0 59177 52200.00000 0 -7571305.838 -17106907.108 17363224.280 10 0 59177 53100.00000 0 -5860749.773 -15627426.116 19311260.168 10 0 59177 54000.00000 0 -3867656.329 -14155263.411 20884945.976 10 0 59177 54900.00000 0 -1626861.091 -12747536.563 22053815.008 10 0 59177 55800.00000 0 815972.907 -11455082.200 22795232.788 10 0 59177 56700.00000 0 3406001.904 -10320376.451 23094830.158 10 0 59177 57600.00000 0 6081234.359 -9375823.555 22946779.032 10 0 59177 58500.00000 0 8774867.129 -8642483.242 22353905.851 10 0 59177 59400.00000 0 11417829.571 -8129289.260 21327640.638 10 0 59177 60300.00000 0 13941431.591 -7832791.168 19887802.254 10 0 59177 61200.00000 0 16280007.074 -7737429.962 18062223.404 10 0 59177 62100.00000 0 18373444.111 -7816335.961 15886221.674 10 0 59177 63000.00000 0 20169497.733 -8032615.695 13401925.722 10 0 59177 63900.00000 0 21625789.282 -8341074.079 10657468.572 10 0 59177 64800.00000 0 22711409.311 -8690299.738 7706062.547 10 0 59177 65700.00000 0 23408056.911 -9025025.866 4604972.915 10 0 59177 66600.00000 0 23710667.448 -9288667.002 1414409.626 10 0 59177 67500.00000 0 23627501.995 -9425924.308 -1803641.559 10 0 59177 68400.00000 0 23179694.266 -9385348.568 -4986625.794 10 0 59177 69300.00000 0 22400273.704 -9121751.536 -8072639.754 10 0 59177 70200.00000 0 21332705.664 -8598362.373 -11001641.744 10 0 59177 71100.00000 0 20029010.111 -7788636.432 -13716627.046 10 0 59177 72000.00000 0 18547538.258 -6677638.300 -16164744.654 10 0 59177 72900.00000 0 16950501.108 -5262938.979 -18298332.973 10 0 59177 73800.00000 0 15301354.371 -3554987.644 -20075853.671 10 0 59177 74700.00000 0 13662150.288 -1576940.789 -21462704.975 10 0 59177 75600.00000 0 12090968.107 636045.513 -22431898.374 10 0 59177 76500.00000 0 10639531.425 3038031.782 -22964585.468 10 0 59177 77400.00000 0 9351112.582 5573969.717 -23050424.754 10 0 59177 78300.00000 0 8258811.849 8181765.971 -22687781.397 10 0 59177 79200.00000 0 7384283.169 10794649.492 -21883756.332 10 0 59177 80100.00000 0 6736959.257 13343743.965 -20654044.340 10 0 59177 81000.00000 0 6313807.588 15760738.364 -19022624.109 10 0 59177 81900.00000 0 6099626.405 17980544.515 -17021286.492 10 0 59177 82800.00000 0 6067867.003 19943830.948 -14689010.380 10 0 59177 83700.00000 0 6181946.333 21599327.670 -12071198.574 10 0 59177 84600.00000 0 6396993.251 22905806.013 -9218788.753 10 0 59177 85500.00000 0 6661953.476 23833651.384 -6187257.288 10 0 59178 0.00000 0 6921963.234 24365963.938 -3035535.713 10 0 59178 900.00000 0 7120890.042 24499141.863 175139.017 10 0 59178 1800.00000 0 7203933.145 24242924.636 3382416.582 10 0 59178 2700.00000 0 7120171.766 23619894.417 6524045.389 10 0 59178 3600.00000 0 6824954.431 22664459.121 9539079.984 10 0 59178 4500.00000 0 6282027.189 21421359.967 12369060.417 10 0 59178 5400.00000 0 5465311.200 19943767.482 14959140.857 10 0 59178 6300.00000 0 4360254.461 18291046.302 17259145.914 10 0 59178 7200.00000 0 2964700.650 16526282.723 19224534.757 10 0 59178 8100.00000 0 1289238.218 14713678.420 20817255.238 10 0 59178 9000.00000 0 -642985.509 12915918.837 22006472.428 10 0 59178 9900.00000 0 -2796978.236 11191625.473 22769158.428 10 0 59178 10800.00000 0 -5127115.948 9592997.370 23090532.961 10 0 59178 11700.00000 0 -7578806.337 8163739.065 22964346.954 10 0 59178 12600.00000 0 -10090534.652 6937360.319 22393003.985 10 0 59178 13500.00000 0 -12596208.593 5935917.428 21387517.364 10 0 59178 14400.00000 0 -15027706.462 5169247.785 19967303.350 10 0 59178 15300.00000 0 -17317524.089 4634729.024 18159813.862 10 0 59178 16200.00000 0 -19401411.836 4317572.412 16000014.869 10 0 59178 17100.00000 0 -21220892.868 4191638.054 13529719.435 10 0 59178 18000.00000 0 -22725558.345 4220737.727 10796787.223 10 0 59178 18900.00000 0 -23875043.965 4360370.713 7854204.888 10 0 59178 19800.00000 0 -24640605.170 4559819.618 4759064.267 10 0 59178 20700.00000 0 -25006224.558 4764517.790 1571457.692 10 0 59178 21600.00000 0 -24969204.541 4918588.114 -1646688.422 10 0 59178 22500.00000 0 -24540219.633 4967445.324 -4832818.992 10 0 59178 23400.00000 0 -23742825.516 4860350.936 -7924970.743 10 0 59178 24300.00000 0 -22612445.002 4552811.557 -10862983.433 10 0 59178 25200.00000 0 -21194873.197 4008717.693 -13589677.444 10 0 59178 26100.00000 0 -19544364.640 3202131.076 -16051973.949 10 0 59178 27000.00000 0 -17721382.969 2118643.324 -18201935.069 10 0 59178 27900.00000 0 -15790107.921 756246.874 -19997703.171 10 0 59178 28800.00000 0 -13815804.786 -874320.046 -21404320.476 10 0 59178 29700.00000 0 -11862167.043 -2749770.459 -22394412.791 10 0 59178 30600.00000 0 -9988743.856 -4835000.723 -22948723.986 10 0 59178 31500.00000 0 -8248560.393 -7084327.986 -23056490.820 10 0 59178 32400.00000 0 -6686030.468 -9443182.073 -22715651.033 10 0 59178 33300.00000 0 -5335248.489 -11850181.727 -21932880.843 10 0 59178 34200.00000 0 -4218731.564 -14239508.767 -20723461.347 10 0 59178 35100.00000 0 -3346663.469 -16543481.345 -19110976.669 10 0 59178 36000.00000 0 -2716670.890 -18695219.015 -17126849.907 10 0 59178 36900.00000 0 -2314139.930 -20631288.367 -14809726.147 10 0 59178 37800.00000 0 -2113057.999 -22294218.827 -12204714.801 10 0 59178 38700.00000 0 -2077344.005 -23634783.682 -9362506.233 10 0 59178 39600.00000 0 -2162609.275 -24613951.118 -6338380.313 10 0 59178 40500.00000 0 -2318273.398 -25204424.123 -3191126.547 10 0 59178 41400.00000 0 -2489944.330 -25391705.339 18102.750 10 0 59178 42300.00000 0 -2621961.118 -25174643.027 3226983.376 10 0 59178 43200.00000 0 -2659990.855 -24565436.185 6373230.739 10 0 59178 44100.00000 0 -2553569.485 -23589099.561 9395808.078 10 0 59178 45000.00000 0 -2258478.709 -22282411.976 12236107.751 10 0 59178 45900.00000 0 -1738858.386 -20692392.861 14839082.803 10 0 59178 46800.00000 0 -968965.211 -18874371.414 17154307.259 10 0 59178 47700.00000 0 65496.485 -16889729.529 19136945.120 10 0 59178 48600.00000 0 1366528.014 -14803412.810 20748610.192 10 0 59178 49500.00000 0 2923509.600 -12681313.181 21958101.031 10 0 59178 50400.00000 0 4713407.933 -10587631.615 22741997.766 10 0 59178 51300.00000 0 6701510.258 -8582329.846 23085110.162 10 0 59178 52200.00000 0 8842655.574 -6718775.989 22980768.990 10 0 59178 53100.00000 0 11082912.968 -5041680.882 22430955.473 10 0 59178 54000.00000 0 13361638.812 -3585409.775 21446266.410 10 0 59178 54900.00000 0 15613828.817 -2372738.565 20045715.335 10 0 59178 55800.00000 0 17772668.540 -1414105.545 18256372.948 10 0 59178 56700.00000 0 19772177.544 -707389.180 16112852.855 10 0 59178 57600.00000 0 21549838.108 -238220.735 13656651.440 10 0 59178 58500.00000 0 23049099.470 19181.553 10935353.572 10 0 59178 59400.00000 0 24221653.317 100691.898 8001718.428 10 0 59178 60300.00000 0 25029385.259 50525.586 4912662.250 10 0 59178 61200.00000 0 25445920.008 -80869.344 1728157.235 10 0 59178 62100.00000 0 25457694.781 -239188.150 -1489932.347 10 0 59178 63000.00000 0 25064514.932 -368812.295 -4679054.184 10 0 59178 63900.00000 0 24279567.554 -415411.018 -7777188.165 10 0 59178 64800.00000 0 23128891.588 -328490.457 -10724058.588 10 0 59178 65700.00000 0 21650326.059 -63781.273 -13462313.926 10 0 59178 66600.00000 0 19891980.144 414637.666 -15938650.325 10 0 59178 67500.00000 0 17910289.134 1132570.826 -18104856.193 10 0 59178 68400.00000 0 15767737.886 2104369.088 -19918756.919 10 0 59178 69300.00000 0 13530347.403 3332082.250 -21345040.785 10 0 59178 70200.00000 0 11265030.131 4805138.133 -22355949.720 10 0 59178 71100.00000 0 9036924.846 6500563.079 -22931821.393 10 0 59178 72000.00000 0 6906822.826 8383735.651 -23061472.060 10 0 59178 72900.00000 0 4928792.799 10409642.812 -22742412.932 10 0 59178 73800.00000 0 3148103.570 12524586.651 -21980896.034 10 0 59178 74700.00000 0 1599530.616 14668270.597 -20791788.911 10 0 59178 75600.00000 0 306116.451 16776178.147 -19198280.834 10 0 59178 76500.00000 0 -721564.569 18782144.754 -17231426.419 10 0 59178 77400.00000 0 -1485607.648 20621015.230 -14929535.803 10 0 59178 78300.00000 0 -2000438.427 22231275.534 -12337423.441 10 0 59178 79200.00000 0 -2291949.323 23557548.714 -9505530.425 10 0 59178 80100.00000 0 -2396149.471 24552850.520 -6488937.798 10 0 59178 81000.00000 0 -2357386.881 25180510.322 -3346290.468 10 0 59178 81900.00000 0 -2226219.416 25415677.134 -138653.085 10 0 59178 82800.00000 0 -2057025.825 25246347.995 3071679.303 10 0 59178 83700.00000 0 -1905458.924 24673876.207 6222392.285 10 0 59178 84600.00000 0 -1825849.358 23712938.786 9252361.028 10 0 59178 85500.00000 0 -1868670.215 22390965.237 12102833.376 10 0 59179 0.00000 0 -2078169.801 20747052.262 14718564.275 10 0 59179 900.00000 0 -2490273.012 18830410.106 17048880.175 10 0 59179 1800.00000 0 -3130838.510 16698406.371 19048652.586 10 0 59179 2700.00000 0 -4014347.190 14414288.220 20679163.729 10 0 59179 3600.00000 0 -5143075.010 12044678.126 21908847.855 10 0 59179 4500.00000 0 -6506786.653 9656946.661 22713894.985 10 0 59179 5400.00000 0 -8082962.870 7316570.691 23078706.414 10 0 59179 6300.00000 0 -9837553.077 5084585.602 22996193.811 10 0 59179 7200.00000 0 -11726222.908 3015236.214 22467916.606 10 0 59179 8100.00000 0 -13696046.049 1153922.627 21504055.097 10 0 59179 9000.00000 0 -15687571.407 -464474.881 20123219.534 10 0 59179 9900.00000 0 -17637180.831 -1816823.245 18352098.252 10 0 59179 10800.00000 0 -19479640.526 -2892466.111 16224950.777 10 0 59179 11700.00000 0 -21150740.822 -3693425.652 13782954.591 10 0 59179 12600.00000 0 -22589914.814 -4234068.718 11073417.103 10 0 59179 13500.00000 0 -23742726.759 -4540251.571 8148867.008 10 0 59179 14400.00000 0 -24563126.032 -4647979.352 5066041.704 10 0 59179 15300.00000 0 -25015371.650 -4601636.784 1884789.867 10 0 59179 16200.00000 0 -25075545.837 -4451864.964 -1333089.821 10 0 59179 17100.00000 0 -24732592.002 -4253174.275 -4525051.228 10 0 59179 18000.00000 0 -23988832.330 -4061394.866 -7629020.759 10 0 59179 18900.00000 0 -22859942.075 -3931073.391 -10584610.483 10 0 59179 19800.00000 0 -21374380.578 -3912927.202 -13334300.025 10 0 59179 20700.00000 0 -19572302.083 -4051464.902 -15824563.332 10 0 59179 21600.00000 0 -17503991.490 -4382875.281 -18006917.614 10 0 59179 22500.00000 0 -15227890.289 -4933275.245 -19838873.399 10 0 59179 23400.00000 0 -12808295.346 -5717392.080 -21284766.657 10 0 59179 24300.00000 0 -10312826.847 -6737736.946 -22316456.536 10 0 59179 25200.00000 0 -7809771.377 -7984305.618 -22913875.012 10 0 59179 26100.00000 0 -5365411.253 -9434820.030 -23065417.777 10 0 59179 27000.00000 0 -3041451.524 -11055501.324 -22768168.925 10 0 59179 27900.00000 0 -892651.743 -12802342.590 -22027955.238 10 0 59179 28800.00000 0 1035239.092 -14622828.304 -20859229.259 10 0 59179 29700.00000 0 2707159.070 -16458028.627 -19284783.644 10 0 59179 30600.00000 0 4099952.430 -18244980.895 -17335302.532 10 0 59179 31500.00000 0 5203081.524 -19919258.391 -15048758.924 10 0 59179 32400.00000 0 6018803.511 -21417618.618 -12469670.015 10 0 59179 33300.00000 0 6561806.179 -22680619.864 -9648225.234 10 0 59179 34200.00000 0 6858320.047 -23655096.124 -6639304.374 10 0 59179 35100.00000 0 6944746.018 -24296386.473 -3501405.308 10 0 59179 36000.00000 0 6865858.179 -24570225.321 -295502.608 10 0 59179 36900.00000 0 6672659.166 -24454214.359 2916140.195 10 0 59179 37800.00000 0 6419979.982 -23938814.704 6071181.187 10 0 59179 38700.00000 0 6163926.713 -23027818.000 9108409.682 10 0 59179 39600.00000 0 5959282.695 -21738277.177 11968931.142 10 0 59179 40500.00000 0 5856976.275 -20099900.236 14597304.520 10 0 59179 41400.00000 0 5901721.154 -18153932.727 16942610.354 10 0 59179 42300.00000 0 6129928.762 -15951575.872 18959429.405 10 0 59179 43200.00000 0 6567980.423 -13552006.245 20608713.775 10 0 59179 44100.00000 0 7230931.882 -11020079.159 21858534.573 10 0 59179 45000.00000 0 8121704.578 -8423810.736 22684692.624 10 0 59179 45900.00000 0 9230797.827 -5831742.336 23071181.355 10 0 59179 46800.00000 0 10536534.525 -3310295.606 23010493.654 10 0 59179 47700.00000 0 12005830.875 -921226.672 22503767.197 10 0 59179 48600.00000 0 13595459.089 1280716.320 21560765.569 10 0 59179 49500.00000 0 15253751.642 3249836.411 20199695.279 10 0 59179 50400.00000 0 16922677.235 4951148.064 18446861.621 10 0 59179 51300.00000 0 18540203.116 6361586.437 16336169.144 10 0 59179 52200.00000 0 20042846.220 7470716.128 13908475.286 10 0 59179 53100.00000 0 21368307.237 8280910.340 11210808.626 10 0 59179 54000.00000 0 22458077.849 8806993.389 8295465.738 10 0 59179 54900.00000 0 23259911.909 9075361.817 5219003.277 10 0 59179 55800.00000 0 23730056.455 9122621.180 2041144.240 10 0 59179 56700.00000 0 23835148.091 8993796.161 -1176380.660 10 0 59179 57600.00000 0 23553693.920 8740189.804 -4371034.033 10 0 59179 58500.00000 0 22877073.433 8416982.724 -7480691.442 10 0 59179 59400.00000 0 21810017.843 8080674.464 -10444855.376 10 0 59179 60300.00000 0 20370545.317 7786476.074 -13205839.192 10 0 59179 61200.00000 0 18589353.672 7585765.228 -15709897.088 10 0 59179 62100.00000 0 16508695.002 7523712.674 -17908277.356 10 0 59179 63000.00000 0 14180778.717 7637181.547 -19758177.766 10 0 59179 63900.00000 0 11665769.453 7952989.475 -21223583.902 10 0 59179 64800.00000 0 9029463.340 8486607.952 -22275973.865 10 0 59179 65700.00000 0 6340739.608 9241354.809 -22894875.489 10 0 59179 66600.00000 0 3668893.938 10208114.643 -23068265.230 10 0 59179 67500.00000 0 1080964.666 11365599.613 -22792801.107 10 0 59179 68400.00000 0 -1360836.890 12681140.172 -22073885.370 10 0 59179 69300.00000 0 -3601485.192 14111972.750 -20925555.880 10 0 59179 70200.00000 0 -5595190.654 15606970.454 -19370208.569 10 0 59179 71100.00000 0 -7307056.657 17108744.121 -17438156.542 10 0 59179 72000.00000 0 -8714275.294 18556025.286 -15167034.673 10 0 59179 72900.00000 0 -9806813.420 19886230.793 -12601061.500 10 0 59179 73800.00000 0 -10587561.928 21038100.998 -9790173.023 10 0 59179 74700.00000 0 -11071943.825 21954300.391 -6789045.702 10 0 59179 75600.00000 0 -11286999.490 22583871.069 -3656028.031 10 0 59179 76500.00000 0 -11269989.511 22884435.731 -452001.935 10 0 59179 77400.00000 0 -11066575.684 22824057.464 2760803.308 10 0 59179 78300.00000 0 -10728658.455 22382678.221 5920021.137 10 0 59179 79200.00000 0 -10311963.320 21553075.680 8964357.957 10 0 59179 80100.00000 0 -9873478.970 20341298.524 11834779.817 10 0 59179 81000.00000 0 -9468855.873 18766562.141 14475652.581 10 0 59179 81900.00000 0 -9149875.281 16860609.226 16835813.855 10 0 59179 82800.00000 0 -8962095.270 14666562.086 18869556.393 10 0 59179 83700.00000 0 -8942772.712 12237314.386 20537504.768 10 0 59179 84600.00000 0 -9119148.251 9633528.868 21807369.347 10 0 59179 85500.00000 0 -9507166.015 6921323.724 22654563.864 10 0 59180 0.00000 0 -10110681.610 4169742.780 23062675.657 10 0 59180 900.00000 0 -10921192.018 1448113.157 23023780.206 10 0 59180 1800.00000 0 -11918098.078 -1176601.200 22538594.354 10 0 59180 2700.00000 0 -13069490.913 -3642341.616 21616465.359 10 0 59180 3600.00000 0 -14333428.691 -5894289.056 20275195.851 10 0 59180 4500.00000 0 -15659652.514 -7886894.422 18540707.364 10 0 59180 5400.00000 0 -16991670.381 -9585521.968 16446548.194 10 0 59180 6300.00000 0 -18269123.272 -10967638.237 14033253.954 10 0 59180 7200.00000 0 -19430335.067 -12023497.567 11347572.120 10 0 59180 8100.00000 0 -20414940.018 -12756295.982 8441564.493 10 0 59180 9000.00000 0 -21166477.664 -13181787.324 5371604.008 10 0 59180 9900.00000 0 -21634845.911 -13327377.844 2197284.786 10 0 59180 10800.00000 0 -21778508.431 -13230737.504 -1019733.787 10 0 59180 11700.00000 0 -21566362.439 -12937986.719 -4216926.505 10 0 59180 12600.00000 0 -20979186.862 -12501535.313 -7332121.566 10 0 59180 13500.00000 0 -20010608.418 -11977665.515 -10304715.343 10 0 59180 14400.00000 0 -18667543.349 -11423961.807 -13076858.301 10 0 59180 15300.00000 0 -16970094.774 -10896697.106 -15594588.101 10 0 59180 16200.00000 0 -14950908.595 -10448286.760 -17808887.077 10 0 59180 17100.00000 0 -12654013.876 -10124918.956 -19676642.827 10 0 59180 18000.00000 0 -10133195.487 -9964462.623 -21161492.678 10 0 59180 18900.00000 0 -7449966.502 -9994742.052 -22234535.252 10 0 59180 19800.00000 0 -4671224.633 -10232251.813 -22874895.203 10 0 59180 20700.00000 0 -1866690.400 -10681366.725 -23070130.077 10 0 59180 21600.00000 0 893766.415 -11334080.630 -22816471.555 10 0 59180 22500.00000 0 3542800.829 -12170285.227 -22118896.546 10 0 59180 23400.00000 0 6018156.074 -13158577.317 -20991026.961 10 0 59180 24300.00000 0 8265010.093 -14257560.456 -19454860.345 10 0 59180 25200.00000 0 10238008.032 -15417586.084 -17540336.788 10 0 59180 26100.00000 0 11902896.847 -16582860.550 -15284750.778 10 0 59180 27000.00000 0 13237694.983 -17693829.015 -12732019.700 10 0 59180 27900.00000 0 14233349.746 -18689735.485 -9931823.441 10 0 59180 28800.00000 0 14893856.407 -19511250.705 -6938632.277 10 0 59180 29700.00000 0 15235835.923 -20103056.891 -3810642.367 10 0 59180 30600.00000 0 15287590.879 -20416280.048 -608639.980 10 0 59180 31500.00000 0 15087681.143 -20410667.217 2605182.840 10 0 59180 32400.00000 0 14683080.931 -20056416.800 5768437.771 10 0 59180 33300.00000 0 14126996.360 -19335584.925 8819751.020 10 0 59180 34200.00000 0 13476436.620 -18243008.735 11699951.702 10 0 59180 35100.00000 0 12789641.904 -16786707.867 14353214.788 10 0 59180 36000.00000 0 12123476.887 -14987747.263 16728136.839 10 0 59180 36900.00000 0 11530899.537 -12879566.978 18778724.133 10 0 59180 37800.00000 0 11058611.536 -10506806.658 20465274.916 10 0 59180 38700.00000 0 10744988.599 -7923673.161 21755139.651 10 0 59180 39600.00000 0 10618377.105 -5191918.555 22623345.480 10 0 59180 40500.00000 0 10695827.983 -2378511.474 23053073.819 10 0 59180 41400.00000 0 10982320.604 446902.797 23035982.599 10 0 59180 42300.00000 0 11470509.103 3214649.485 22572367.387 10 0 59180 43200.00000 0 12141001.940 5857670.552 21671158.464 10 0 59180 44100.00000 0 12963163.528 8314061.745 20349753.663 10 0 59180 45000.00000 0 13896405.091 10529396.544 18633689.669 10 0 59180 45900.00000 0 14891911.617 12458741.723 16556157.244 10 0 59180 46800.00000 0 15894733.486 14068281.674 14157368.718 10 0 59180 47700.00000 0 16846155.881 15336484.472 11483788.838 10 0 59180 48600.00000 0 17686247.141 16254761.461 8587242.827 10 0 59180 49500.00000 0 18356479.261 16827593.042 5523917.921 10 0 59180 50400.00000 0 18802310.176 17072115.421 2353277.214 10 0 59180 51300.00000 0 18975618.573 17017185.767 -863093.517 10 0 59180 52200.00000 0 18836887.722 16701965.176 -4062683.620 10 0 59180 53100.00000 0 18357044.968 16174079.314 -7183276.330 10 0 59180 54000.00000 0 17518877.840 15487434.663 -10164164.255 10 0 59180 54900.00000 0 16317965.412 14699783.068 -12947337.224 10 0 59180 55800.00000 0 14763084.011 13870138.075 -15478618.477 10 0 59180 56700.00000 0 12876068.602 13056153.007 -17708726.341 10 0 59180 57600.00000 0 10691134.197 12311572.277 -19594240.038 10 0 59180 58500.00000 0 8253684.602 11683864.404 -21098450.261 10 0 59180 59400.00000 0 5618657.412 11212137.300 -22192077.632 10 0 59180 60300.00000 0 2848473.733 10925424.341 -22853844.926 10 0 59180 61200.00000 0 10677.814 10841413.877 -23070891.888 10 0 59180 62100.00000 0 -2824635.321 10965675.918 -22839024.704 10 0 59180 63000.00000 0 -5587497.385 11291418.552 -22162795.459 10 0 59180 63900.00000 0 -8210738.102 11799784.242 -21055410.242 10 0 59180 64800.00000 0 -10632539.440 12460673.158 -19538467.920 10 0 59180 65700.00000 0 -12798766.884 13234058.476 -17641534.831 10 0 59180 66600.00000 0 -14664981.221 14071737.691 -15401563.950 10 0 59180 67500.00000 0 -16198047.841 14919445.589 -12862170.023 10 0 59180 68400.00000 0 -17377277.528 15719239.173 -10072775.044 10 0 59180 69300.00000 0 -18195052.349 16412053.384 -7087641.118 10 0 59180 70200.00000 0 -18656912.030 16940319.246 -3964809.909 10 0 59180 71100.00000 0 -18781098.946 17250533.462 -764969.757 10 0 59180 72000.00000 0 -18597582.503 17295670.676 2449726.914 10 0 59180 72900.00000 0 -18146605.700 17037336.357 5616872.484 10 0 59180 73800.00000 0 -17476816.514 16447569.362 8675015.517 10 0 59180 74700.00000 0 -16643064.047 15510218.165 11564850.802 10 0 59180 75600.00000 0 -15703953.163 14221832.792 14230365.061 10 0 59180 76500.00000 0 -14719261.057 12592034.851 16619916.436 10 0 59180 77400.00000 0 -13747324.615 10643349.981 18687227.294 10 0 59180 78300.00000 0 -12842508.155 8410509.321 20392271.992 10 0 59180 79200.00000 0 -12052857.420 5939248.554 21702043.331 10 0 59180 80100.00000 0 -11418037.557 3284653.776 22591183.854 10 0 59180 81000.00000 0 -10967640.787 509121.887 23042470.736 10 0 59180 81900.00000 0 -10719933.938 -2319981.109 23047145.679 10 0 59180 82800.00000 0 -10681097.787 -5132868.133 22605083.906 10 0 59180 83700.00000 0 -10844989.736 -7859981.288 21724799.192 10 0 59180 84600.00000 0 -11193439.801 -10434636.062 20423284.608 10 0 59180 85500.00000 0 -11697067.771 -12795551.099 18725691.534 99